NPT45C EGCC-EGPH

Flight info

Callsign NPT45C
Flight time 0h 37m
Altitude 24000
Route DESIG DCT DOMIG DCT ULSAX N601 INPIP
Aircraft B738/M-SDE2E3FGHIRWXY/LB1

Departure

Time 2026-05-06 12:44
Airport Manchester Airport (EGCC)

Arrival

Time 2026-05-06 13:22
Airport Edinburgh Airport (EGPH)
Time Latitude Longitude Altitude Speed Heading
2026-05-06 12:17 53.36423 -2.28655 254 ft 0 kts 225°
2026-05-06 12:37 53.36421 -2.28655 254 ft 4 kts 235°
2026-05-06 12:37 53.36428 -2.28625 254 ft 4 kts 249°
2026-05-06 12:37 53.36441 -2.28587 254 ft 4 kts 223°
2026-05-06 12:38 53.36462 -2.28564 254 ft 4 kts 192°
2026-05-06 12:38 53.36487 -2.28565 254 ft 4 kts 149°
2026-05-06 12:38 53.36494 -2.28573 254 ft 1 kts 135°
2026-05-06 12:41 53.36453 -2.28503 254 ft 19 kts 135°
2026-05-06 12:41 53.36313 -2.28268 254 ft 37 kts 135°
2026-05-06 12:42 53.36113 -2.27928 254 ft 41 kts 134°
2026-05-06 12:42 53.35855 -2.27861 254 ft 38 kts 186°
2026-05-06 12:42 53.35592 -2.27903 248 ft 38 kts 186°
2026-05-06 12:42 53.35363 -2.28078 240 ft 38 kts 226°
2026-05-06 12:43 53.35183 -2.28404 230 ft 38 kts 232°
2026-05-06 12:43 53.35009 -2.28750 220 ft 39 kts 226°
2026-05-06 12:43 53.34820 -2.29088 210 ft 40 kts 229°
2026-05-06 12:43 53.34641 -2.29340 212 ft 34 kts 185°
2026-05-06 12:44 53.34555 -2.29149 203 ft 22 kts 44°
2026-05-06 12:44 53.34751 -2.28766 214 ft 87 kts 50°
2026-05-06 12:44 53.35337 -2.27564 271 ft 174 kts 50°
2026-05-06 12:44 53.36178 -2.25800 1007 ft 207 kts 51°
2026-05-06 12:45 53.37144 -2.23779 2055 ft 227 kts 52°
2026-05-06 12:45 53.38114 -2.21679 3344 ft 235 kts 52°
2026-05-06 12:45 53.40156 -2.17195 5430 ft 248 kts 53°
2026-05-06 12:46 53.41176 -2.14842 6373 ft 257 kts 52°
2026-05-06 12:46 53.42228 -2.12369 7280 ft 265 kts 52°
2026-05-06 12:46 53.43312 -2.09819 8197 ft 272 kts 52°
2026-05-06 12:46 53.44420 -2.07209 9169 ft 278 kts 52°
2026-05-06 12:47 53.45574 -2.04496 9595 ft 299 kts 52°
2026-05-06 12:47 53.46794 -2.01635 9567 ft 298 kts 52°
2026-05-06 12:47 53.48010 -1.98872 9977 ft 291 kts 47°
2026-05-06 12:47 53.49435 -1.96402 10522 ft 306 kts 43°
2026-05-06 12:48 53.50994 -1.93708 10784 ft 333 kts 40°
2026-05-06 12:48 53.53019 -1.91816 11451 ft 338 kts 14°
2026-05-06 12:48 53.55346 -1.91424 12362 ft 338 kts 353°
2026-05-06 12:48 53.57599 -1.92503 13261 ft 340 kts 331°
2026-05-06 12:49 53.59628 -1.94588 14128 ft 343 kts 326°
2026-05-06 12:49 53.61647 -1.96805 14911 ft 348 kts 326°
2026-05-06 12:49 53.63696 -1.99017 15690 ft 352 kts 326°
2026-05-06 12:49 53.65786 -2.01242 16485 ft 357 kts 326°
2026-05-06 12:50 53.67902 -2.03474 17265 ft 361 kts 326°
2026-05-06 12:50 53.70047 -2.05725 18050 ft 365 kts 326°
2026-05-06 12:50 53.72219 -2.08005 18747 ft 370 kts 326°
2026-05-06 12:50 53.74432 -2.10270 19416 ft 374 kts 329°
2026-05-06 12:51 53.76823 -2.12087 20060 ft 379 kts 336°
2026-05-06 12:51 53.79289 -2.13732 20706 ft 383 kts 336°
2026-05-06 12:51 53.81786 -2.15401 21355 ft 387 kts 336°
2026-05-06 12:51 53.84296 -2.17111 21991 ft 391 kts 335°
2026-05-06 12:52 53.86837 -2.18863 22604 ft 395 kts 335°
2026-05-06 12:52 53.89396 -2.20622 23213 ft 399 kts 335°
2026-05-06 12:52 53.91982 -2.22394 23773 ft 403 kts 335°
2026-05-06 12:52 53.94586 -2.24178 24035 ft 404 kts 335°
2026-05-06 12:53 53.97189 -2.25963 24053 ft 404 kts 335°
2026-05-06 12:53 53.99797 -2.27755 24063 ft 405 kts 335°
2026-05-06 12:53 54.02379 -2.29534 24068 ft 405 kts 335°
2026-05-06 12:53 54.04992 -2.31340 24071 ft 405 kts 335°
2026-05-06 12:54 54.07605 -2.33149 24067 ft 405 kts 335°
2026-05-06 12:54 54.10217 -2.34959 24065 ft 405 kts 335°
2026-05-06 12:54 54.12828 -2.36771 24064 ft 405 kts 335°
2026-05-06 12:54 54.15435 -2.38583 24063 ft 405 kts 335°
2026-05-06 12:55 54.18047 -2.40395 24066 ft 405 kts 335°
2026-05-06 12:55 54.20658 -2.42203 24062 ft 405 kts 335°
2026-05-06 12:55 54.23270 -2.44014 24067 ft 404 kts 335°
2026-05-06 12:55 54.25881 -2.45826 24063 ft 404 kts 335°
2026-05-06 12:56 54.28484 -2.47635 24067 ft 404 kts 335°
2026-05-06 12:56 54.31086 -2.49447 24066 ft 404 kts 335°
2026-05-06 12:56 54.33692 -2.51265 24061 ft 404 kts 335°
2026-05-06 12:56 54.36300 -2.53087 24071 ft 404 kts 335°
2026-05-06 12:57 54.38900 -2.54906 24071 ft 404 kts 335°
2026-05-06 12:57 54.41503 -2.56729 24069 ft 405 kts 335°
2026-05-06 12:57 54.44114 -2.58560 24071 ft 405 kts 335°
2026-05-06 12:57 54.46719 -2.60390 24068 ft 405 kts 335°
2026-05-06 12:58 54.49333 -2.62227 24068 ft 404 kts 335°
2026-05-06 12:58 54.51900 -2.64038 24069 ft 404 kts 335°
2026-05-06 12:58 54.54501 -2.65882 24067 ft 404 kts 335°
2026-05-06 12:58 54.57100 -2.67728 24071 ft 404 kts 335°
2026-05-06 12:59 54.59696 -2.69574 24067 ft 404 kts 335°
2026-05-06 12:59 54.62292 -2.71424 24063 ft 403 kts 335°
2026-05-06 12:59 54.64883 -2.73270 24062 ft 403 kts 335°
2026-05-06 12:59 54.67475 -2.75120 24064 ft 403 kts 334°
2026-05-06 13:00 54.70063 -2.76970 24061 ft 403 kts 334°
2026-05-06 13:00 54.72650 -2.78819 24061 ft 402 kts 334°
2026-05-06 13:00 54.75237 -2.80666 24053 ft 402 kts 334°
2026-05-06 13:00 54.77825 -2.82515 24056 ft 402 kts 334°
2026-05-06 13:01 54.80410 -2.84365 24053 ft 401 kts 334°
2026-05-06 13:01 54.82989 -2.86213 24052 ft 402 kts 334°
2026-05-06 13:01 54.85574 -2.88069 24048 ft 402 kts 334°
2026-05-06 13:01 54.88162 -2.89929 24042 ft 403 kts 334°
2026-05-06 13:02 54.90754 -2.91802 24035 ft 402 kts 334°
2026-05-06 13:02 54.93293 -2.93638 23970 ft 387 kts 334°
2026-05-06 13:02 54.95737 -2.95407 23888 ft 373 kts 334°
2026-05-06 13:02 54.98089 -2.97114 23817 ft 360 kts 334°
2026-05-06 13:03 55.00357 -2.98763 23743 ft 347 kts 333°
2026-05-06 13:03 55.02548 -3.00359 23579 ft 338 kts 333°
2026-05-06 13:03 55.04704 -3.01936 23163 ft 335 kts 333°
2026-05-06 13:03 55.06850 -3.03508 22699 ft 334 kts 333°
2026-05-06 13:04 55.08994 -3.05078 22273 ft 333 kts 333°
2026-05-06 13:04 55.11123 -3.06636 21881 ft 331 kts 334°
2026-05-06 13:04 55.13240 -3.08187 21491 ft 329 kts 334°
2026-05-06 13:04 55.15317 -3.09710 21083 ft 327 kts 334°
2026-05-06 13:05 55.17412 -3.11245 20701 ft 326 kts 334°
2026-05-06 13:05 55.19494 -3.12772 20328 ft 324 kts 334°
2026-05-06 13:05 55.21564 -3.14292 20089 ft 322 kts 334°
2026-05-06 13:05 55.23644 -3.15821 20064 ft 325 kts 334°
2026-05-06 13:06 55.25724 -3.17352 20061 ft 323 kts 334°
2026-05-06 13:06 55.27795 -3.18876 20049 ft 323 kts 334°
2026-05-06 13:06 55.29925 -3.20155 20041 ft 327 kts 347°
2026-05-06 13:06 55.32224 -3.20222 20064 ft 332 kts
2026-05-06 13:07 55.34534 -3.19883 20055 ft 334 kts
2026-05-06 13:07 55.36858 -3.19475 20050 ft 335 kts
2026-05-06 13:07 55.39177 -3.19063 20051 ft 336 kts
2026-05-06 13:07 55.41505 -3.18662 20053 ft 336 kts
2026-05-06 13:08 55.43827 -3.18275 20050 ft 335 kts
2026-05-06 13:08 55.46148 -3.17898 20061 ft 335 kts
2026-05-06 13:08 55.48465 -3.17529 20056 ft 335 kts
2026-05-06 13:08 55.50770 -3.17165 20053 ft 334 kts
2026-05-06 13:09 55.53083 -3.16799 19417 ft 337 kts
2026-05-06 13:09 55.55525 -3.16422 17666 ft 365 kts
2026-05-06 13:09 55.58118 -3.16017 15896 ft 382 kts
2026-05-06 13:09 55.60808 -3.15590 14508 ft 387 kts
2026-05-06 13:10 55.63508 -3.15161 12919 ft 392 kts
2026-05-06 13:10 55.66228 -3.14873 11370 ft 392 kts 355°
2026-05-06 13:10 55.68814 -3.16033 10530 ft 375 kts 334°
2026-05-06 13:10 55.70904 -3.18427 9754 ft 347 kts 318°
2026-05-06 13:11 55.72463 -3.21525 8711 ft 327 kts 305°
2026-05-06 13:11 55.73492 -3.24923 7698 ft 309 kts 291°
2026-05-06 13:11 55.74117 -3.28471 6699 ft 295 kts 286°
2026-05-06 13:11 55.74649 -3.31923 5650 ft 286 kts 285°
2026-05-06 13:12 55.75160 -3.35301 4656 ft 281 kts 284°
2026-05-06 13:12 55.75648 -3.38514 4296 ft 256 kts 284°
2026-05-06 13:12 55.76092 -3.41409 4132 ft 231 kts 284°
2026-05-06 13:12 55.76496 -3.44031 3999 ft 209 kts 284°
2026-05-06 13:13 55.76863 -3.46395 3983 ft 191 kts 284°
2026-05-06 13:13 55.77214 -3.48669 3974 ft 190 kts 284°
2026-05-06 13:13 55.77555 -3.50870 3964 ft 179 kts 284°
2026-05-06 13:13 55.77878 -3.52950 3978 ft 173 kts 284°
2026-05-06 13:14 55.78193 -3.54989 3969 ft 169 kts 283°
2026-05-06 13:14 55.78508 -3.57021 3991 ft 172 kts 283°
2026-05-06 13:14 55.78828 -3.59082 3994 ft 175 kts 283°
2026-05-06 13:14 55.79151 -3.61172 3993 ft 175 kts 283°
2026-05-06 13:15 55.79471 -3.63242 3984 ft 172 kts 283°
2026-05-06 13:15 55.79782 -3.65254 3986 ft 170 kts 283°
2026-05-06 13:15 55.80093 -3.67276 3983 ft 169 kts 284°
2026-05-06 13:15 55.80404 -3.69289 3972 ft 169 kts 283°
2026-05-06 13:16 55.80951 -3.71096 3959 ft 169 kts 320°
2026-05-06 13:16 55.82044 -3.71602 3997 ft 170 kts 16°
2026-05-06 13:16 55.82999 -3.70401 4006 ft 172 kts 50°
2026-05-06 13:16 55.83857 -3.68879 3987 ft 174 kts 47°
2026-05-06 13:17 55.84645 -3.67247 3918 ft 175 kts 52°
2026-05-06 13:17 55.85391 -3.65524 3677 ft 175 kts 57°
2026-05-06 13:17 55.86056 -3.63734 3461 ft 172 kts 60°
2026-05-06 13:17 55.86680 -3.61927 3240 ft 169 kts 61°
2026-05-06 13:18 55.87274 -3.60168 3027 ft 159 kts 61°
2026-05-06 13:18 55.87810 -3.58578 2811 ft 142 kts 62°
2026-05-06 13:18 55.88137 -3.57603 2633 ft 134 kts 62°
2026-05-06 13:18 55.88613 -3.56189 2478 ft 134 kts 62°
2026-05-06 13:19 55.89089 -3.54776 2303 ft 133 kts 62°
2026-05-06 13:19 55.89563 -3.53361 2106 ft 131 kts 61°
2026-05-06 13:19 55.90029 -3.51975 1930 ft 130 kts 62°
2026-05-06 13:19 55.90493 -3.50593 1737 ft 130 kts 61°
2026-05-06 13:20 55.90958 -3.49217 1584 ft 130 kts 62°
2026-05-06 13:20 55.91428 -3.47837 1398 ft 129 kts 61°
2026-05-06 13:20 55.91884 -3.46472 1216 ft 126 kts 62°
2026-05-06 13:20 55.92328 -3.45131 1027 ft 125 kts 59°
2026-05-06 13:21 55.92786 -3.43818 828 ft 121 kts 60°
2026-05-06 13:21 55.93212 -3.42533 689 ft 123 kts 59°
2026-05-06 13:21 55.93651 -3.41237 500 ft 120 kts 58°
2026-05-06 13:21 55.94080 -3.39960 329 ft 120 kts 59°
2026-05-06 13:22 55.94508 -3.38701 156 ft 119 kts 59°
2026-05-06 13:22 55.94908 -3.37526 111 ft 99 kts 60°
2026-05-06 13:22 55.95179 -3.36727 111 ft 47 kts 59°
2026-05-06 13:22 55.95257 -3.36459 111 ft 15 kts 91°
2026-05-06 13:23 55.95187 -3.36342 113 ft 14 kts 150°
2026-05-06 13:23 55.95128 -3.36215 114 ft 13 kts 108°
2026-05-06 13:23 55.95106 -3.36058 114 ft 13 kts 109°
2026-05-06 13:23 55.95070 -3.35914 114 ft 13 kts 119°
2026-05-06 13:24 55.95055 -3.35768 112 ft 12 kts 82°
2026-05-06 13:24 55.95036 -3.35628 114 ft 12 kts 120°
2026-05-06 13:24 55.94995 -3.35502 113 ft 12 kts 120°
2026-05-06 13:24 55.95009 -3.35386 115 ft 11 kts 26°
2026-05-06 13:25 55.95081 -3.35349 112 ft 11 kts 334°
2026-05-06 13:25 55.95123 -3.35460 112 ft 11 kts 298°
2026-05-06 13:25 55.95162 -3.35484 116 ft 0 kts 18°
2026-05-06 13:25 55.95170 -3.35479 113 ft 0 kts 21°
2026-05-06 13:26 55.95175 -3.35475 113 ft 1 kts 24°
2026-05-06 13:26 55.95180 -3.35471 114 ft 0 kts 25°
2026-05-06 13:26 55.95184 -3.35467 114 ft 0 kts 26°
2026-05-06 13:26 55.95187 -3.35464 114 ft 0 kts 27°
2026-05-06 13:27 55.95188 -3.35464 114 ft 0 kts 27°
2026-05-06 13:27 55.95188 -3.35463 114 ft 0 kts 27°